{"data":{"norad_id":54136,"intl_designator":"2022-138Z","name":"ONEWEB-0518","alt_names":[],"object_type":"PAYLOAD","status":"ACTIVE","operator":null,"country":"UK","launch_date":"2022-10-22","launch_site_code":"SRILR","launch_vehicle":null,"mission":null,"orbit_class":"UNKNOWN","rcs_meters":null,"size_class":null,"mass_kg":null,"dimensions":null,"purposes":["comms"],"wikipedia_slug":null,"has_3d_model":false,"image_url":null,"decayed_at":null,"tle_current":{"epoch":"2026-09-20T01:38:17.491200Z","epoch_age_seconds":62977,"freshness":"FRESH","line1":"1 54136U 22138Z   26263.06825800  .00000010  00000+0 -78912-5 0  9996","line2":"2 54136  87.9109 286.0684 0001771  89.6571 270.4765 13.19724424189344","mean_motion":13.19724424,"eccentricity":0.0001771,"inclination_deg":87.9109,"raan_deg":286.0684,"arg_perigee_deg":89.6571,"mean_anomaly_deg":270.4765,"bstar":-7.8912e-6,"rev_number":18934,"period_min":109.11368872264,"perigee_km":1184.4331844493,"apogee_km":1187.1123212838,"semimajor_km":7563.9097528666,"source":"CELESTRAK","updated_at":"2026-09-20T09:00:44.719969Z"}}}